Bookmark and Share
Track history (hours):
 

Hayase Maru

Last reported at 2014-Apr-23 06:25 UTC. Time now 2014-Apr-23 07:03 UTC.
Position N 35°56' E 140°42'.

Length 73 m; draft 4.1 m.

Type: Ship. MMSI: 431000395.

NotesDate/timePositionNaut miles runAvg speedWind from/ knotsBaromVisibWave heightAir tempDewpointWater temp
2014-Apr-23 06:25N 35°56' E 140°42'2 0.3
2014-Apr-23 01:31N 35°56' E 140°40'0 0.0
2014-Apr-22 23:29N 35°56' E 140°40'0 0.0
2014-Apr-22 22:29N 35°56' E 140°40'0 0.1
2014-Apr-22 21:33N 35°56' E 140°40'0 0.0
2014-Apr-22 20:33N 35°56' E 140°40'0 0.1
2014-Apr-22 19:33N 35°56' E 140°40'0 0.0
2014-Apr-22 18:33N 35°56' E 140°40'0 0.0
2014-Apr-22 17:33N 35°56' E 140°40'0 0.1
2014-Apr-22 16:33N 35°56' E 140°40'0 0.1
2014-Apr-22 15:33N 35°56' E 140°40'0 0.0
2014-Apr-22 14:33N 35°56' E 140°40'0 0.0
2014-Apr-22 13:33N 35°56' E 140°40'0 0.1
2014-Apr-22 12:33N 35°56' E 140°40'0 0.1
2014-Apr-22 11:33N 35°56' E 140°40'0 0.1
2014-Apr-22 10:34N 35°56' E 140°40'  
2014-Apr-20 04:04N 35°01' E 140°12'23 9.0
2014-Apr-20 01:27N 34°57' E 139°44'910.3
2014-Apr-20 00:33N 35°06' E 139°44'1111.2
2014-Apr-19 23:33N 35°17' E 139°45'9 9.2
2014-Apr-19 22:33N 35°26' E 139°43'3 3.0
2014-Apr-19 21:33N 35°26' E 139°47'7 6.8
2014-Apr-19 20:33N 35°22' E 139°53'0 0.0
2014-Apr-19 19:33N 35°22' E 139°53'0 0.0
2014-Apr-19 18:33N 35°22' E 139°53'0 0.0
2014-Apr-19 17:34N 35°22' E 139°53'0 0.0
2014-Apr-19 16:34N 35°22' E 139°53'0 0.0
2014-Apr-19 15:33N 35°22' E 139°53'0 0.0
2014-Apr-19 14:33N 35°22' E 139°53'0 0.0
2014-Apr-19 13:33N 35°22' E 139°53'0 0.0
2014-Apr-19 12:34N 35°22' E 139°53'0 0.0
2014-Apr-19 11:33N 35°22' E 139°53'0 0.0
2014-Apr-19 10:33N 35°22' E 139°53'1 0.8
2014-Apr-19 09:33N 35°22' E 139°53'8 8.1
2014-Apr-19 08:33N 35°30' E 139°52'1110.7
2014-Apr-19 07:33N 35°40' E 139°57'1 1.1
2014-Apr-19 06:33N 35°40' E 139°56'0 0.0
2014-Apr-19 05:33N 35°40' E 139°56'0 0.0
2014-Apr-19 04:33N 35°40' E 139°56'0 0.0
2014-Apr-19 03:33N 35°40' E 139°56'0 0.0
2014-Apr-19 02:33N 35°40' E 139°56'0 0.0
2014-Apr-19 01:34N 35°40' E 139°56'0 0.0
2014-Apr-19 00:33N 35°40' E 139°56'0 0.0
2014-Apr-18 23:33N 35°40' E 139°56'0 0.0
2014-Apr-18 22:33N 35°40' E 139°56'0 0.0
2014-Apr-18 21:33N 35°40' E 139°56'0 0.0
2014-Apr-18 20:33N 35°40' E 139°56'0 0.0
2014-Apr-18 19:33N 35°40' E 139°56'0 0.0
2014-Apr-18 18:33N 35°40' E 139°56'0 0.0
2014-Apr-18 17:33N 35°40' E 139°56'0 0.0
2014-Apr-18 16:34N 35°40' E 139°56'0 0.0
2014-Apr-18 15:33N 35°40' E 139°56'0 0.0
2014-Apr-18 14:33N 35°40' E 139°56'0 0.0
2014-Apr-18 13:34N 35°40' E 139°56'0 0.0
2014-Apr-18 12:33N 35°40' E 139°56'0 0.0
2014-Apr-18 11:33N 35°40' E 139°56'0 0.0
2014-Apr-18 10:34N 35°40' E 139°56'0 0.0
2014-Apr-18 09:34N 35°40' E 139°56'0 0.0
2014-Apr-18 08:33N 35°40' E 139°56'0 0.0
2014-Apr-18 07:33N 35°40' E 139°56'0 0.0
2014-Apr-18 06:33N 35°40' E 139°56'0 0.0
2014-Apr-18 05:33N 35°40' E 139°56'0 0.0
2014-Apr-18 04:33N 35°40' E 139°56'0 0.0
2014-Apr-18 03:33N 35°40' E 139°56'0 0.0
2014-Apr-18 02:33N 35°40' E 139°56'0 0.0
2014-Apr-18 01:33N 35°40' E 139°56'0 0.0
2014-Apr-18 00:33N 35°40' E 139°56'0 0.0
2014-Apr-17 23:33N 35°40' E 139°56'3 3.4
2014-Apr-17 22:33N 35°37' E 139°58'0 0.0
2014-Apr-17 21:29N 35°37' E 139°58'0 0.0
2014-Apr-17 20:32N 35°37' E 139°58'0 0.0
2014-Apr-17 19:29N 35°37' E 139°58'0 0.0
2014-Apr-17 18:29N 35°37' E 139°58'2 1.8
2014-Apr-17 17:33N 35°36' E 139°57'1111.3
2014-Apr-17 16:33N 35°27' E 139°49'1010.1
2014-Apr-17 15:33N 35°17' E 139°46'1110.5
2014-Apr-17 14:33N 35°06' E 139°45'1211.5
2014-Apr-17 13:33N 34°59' E 139°34'232 9.3
2014-Apr-16 12:32N 34°10' E 134°59'10 8.9
2014-Apr-16 11:24N 34°20' E 134°60'8 9.9
2014-Apr-16 10:33N 34°26' E 135°06'1111.3
2014-Apr-16 09:33N 34°33' E 135°17'8 0.9
2014-Apr-16 00:18N 34°35' E 135°27'0 0.0
2014-Apr-15 22:13N 34°35' E 135°27'1 1.9
2014-Apr-15 21:32N 34°35' E 135°25'0 0.0
2014-Apr-15 20:33N 34°35' E 135°25'0 0.0
2014-Apr-15 19:33N 34°35' E 135°25'0 0.0
2014-Apr-15 18:33N 34°35' E 135°25'0 0.1
2014-Apr-15 17:33N 34°35' E 135°25'0 0.0
2014-Apr-15 16:33N 34°35' E 135°25'0 0.0
2014-Apr-15 15:33N 34°35' E 135°25'0 0.0
2014-Apr-15 14:33N 34°35' E 135°25'0 0.0
2014-Apr-15 12:34N 34°35' E 135°25'0 0.0
2014-Apr-15 11:34N 34°35' E 135°25'0 0.0
2014-Apr-15 10:33N 34°35' E 135°25'0 0.0
2014-Apr-15 09:34N 34°35' E 135°25'0 0.0
2014-Apr-15 08:34N 34°35' E 135°25'0 0.1
2014-Apr-15 07:34N 34°35' E 135°25'2 2.2
2014-Apr-15 06:34N 34°36' E 135°23'4 4.2
2014-Apr-15 05:31N 34°39' E 135°28'0 0.0
2014-Apr-15 03:34N 34°39' E 135°28'0 0.0
2014-Apr-15 02:34N 34°39' E 135°28'0 0.0
2014-Apr-15 01:33N 34°39' E 135°28'0 0.0
2014-Apr-15 00:34N 34°39' E 135°28'0 0.0
2014-Apr-14 23:34N 34°39' E 135°28'0 0.0
2014-Apr-14 22:33N 34°39' E 135°28'0 0.0
2014-Apr-14 21:33N 34°39' E 135°28'0 0.0
2014-Apr-14 20:33N 34°39' E 135°28'0 0.0
2014-Apr-14 19:33N 34°39' E 135°28'0 0.0
2014-Apr-14 18:33N 34°39' E 135°28'0 0.0
2014-Apr-14 17:33N 34°39' E 135°28'0 0.0
2014-Apr-14 16:33N 34°39' E 135°28'0 0.0
2014-Apr-14 15:33N 34°39' E 135°28'0 0.0
2014-Apr-14 14:33N 34°39' E 135°28'0 0.0
2014-Apr-14 13:33N 34°39' E 135°28'0 0.0
2014-Apr-14 11:33N 34°39' E 135°28'0 0.0
2014-Apr-14 10:33N 34°39' E 135°28'0 0.0
2014-Apr-14 09:33N 34°39' E 135°28'0 0.0
2014-Apr-14 08:33N 34°39' E 135°28'0 0.0
2014-Apr-14 07:33N 34°39' E 135°28'0 0.0
2014-Apr-14 06:33N 34°39' E 135°28'0 0.3
2014-Apr-14 05:33N 34°39' E 135°27'  

Dump ship's entire track history

sailing weather and tide predictions

Hayase Maru — JD2583 — position and weather